Location: Boundary
(64.0833°N, 141.0167°W)
Time: 12:09:03
(UTC+00:00)

N. Korean satellite - Visible Passes

Search period start: 28 October 2020 00:00
Search period end: 07 November 2020 00:00
Orbit: 452 x 505 km, 97.2° (Epoch: 27 October)

Date Brightness Start Highest point End Pass type
(mag) Time Alt. Az. Time Alt. Az. Time Alt. Az.
28 Oct 9.8 03:08:26 10° SW 03:10:49 17° W 03:13:12 10° NW visible
28 Oct 9.1 14:21:27 10° NE 14:24:17 23° E 14:27:05 10° SSE visible
28 Oct 6.4 15:54:32 10° NNE 15:57:57 60° WNW 16:01:20 10° SSW visible
29 Oct 9.1 02:41:26 10° SSW 02:44:27 26° W 02:47:26 10° NW visible
29 Oct 9.8 13:55:46 10° NE 13:57:52 15° E 13:59:57 10° ESE visible
29 Oct 6.5 15:28:21 10° NNE 15:31:49 82° ESE 15:35:14 10° SSW visible
30 Oct 8.1 02:14:47 10° S 02:18:08 40° W 02:21:28 10° NNW visible
30 Oct 7.5 15:02:14 10° NNE 15:05:36 49° ESE 15:08:56 10° S visible
31 Oct 10.0 03:24:12 10° WSW 03:25:56 13° W 03:27:39 10° NW visible
31 Oct 8.6 14:36:13 10° NNE 14:39:18 30° E 14:42:23 10° SSE visible
31 Oct 6.7 16:09:31 10° N 16:12:49 46° WNW 16:16:07 10° SW visible
01 Nov 9.6 02:56:50 10° SW 02:59:29 20° W 03:02:08 10° NW visible
01 Nov 9.4 14:10:22 10° NE 14:12:56 19° E 14:15:30 10° SE visible
01 Nov 6.3 15:43:16 10° NNE 15:46:43 75° WNW 15:50:08 10° SSW visible
02 Nov 8.7 02:29:58 10° SSW 02:33:07 31° W 02:36:15 10° NNW visible
02 Nov 10.0 13:44:54 10° NE 13:46:29 13° E 13:48:03 10° ESE visible
02 Nov 6.9 15:17:06 10° NNE 15:20:31 66° ESE 15:23:56 10° S visible
03 Nov 7.6 02:03:25 10° S 02:06:50 50° W 02:10:13 10° NNW visible
03 Nov 8.0 14:51:00 10° NNE 14:54:16 39° E 14:57:31 10° S visible
04 Nov 9.8 03:12:21 10° SW 03:14:31 16° W 03:16:41 10° NW visible
04 Nov 8.9 14:25:01 10° NE 14:27:55 25° E 14:30:50 10° SSE visible
04 Nov 6.5 15:58:10 10° NNE 16:01:33 56° WNW 16:04:55 10° SW visible
05 Nov 9.2 02:45:13 10° SSW 02:48:06 24° W 02:50:57 10° NW visible
05 Nov 9.7 13:59:16 10° NE 14:01:31 16° E 14:03:45 10° SE visible
05 Nov 6.4 15:31:56 10° NNE 15:35:24 88° ESE 15:38:50 10° SSW visible
06 Nov 8.2 02:18:29 10° SSW 02:21:45 37° W 02:24:59 10° NNW visible
06 Nov 10.2 13:34:21 10° ENE 13:35:01 10° E 13:35:39 10° E visible
06 Nov 7.3 15:05:47 10° NNE 15:09:10 53° ESE 15:12:33 10° S visible
